Location: Austin
(30.3000°N, 97.7500°W)
Time: 06:20:45
(UTC-06:00)

Daily predictions for brighter satellites

Satellite Brightness Start Highest point End
(mag) Time Altitude Azimuth Time Altitude Azimuth Time Altitude Azimuth
Cosmos 2263 Rocket 2.8 18:32:21 10° SSE 18:37:24 35° ESE 18:42:30 10° NE
USA 234 4.1 18:33:12 10° E 18:38:46 31° NE 18:44:20 10° NNW
Cosmos 1315 Rocket 4.0 18:36:00 10° NNW 18:39:40 47° W 18:43:19 10° S
COSMO-SKYMED 1 2.6 18:35:44 10° NNE 18:39:45 52° E 18:43:44 10° S
Tiangong 0.4 18:41:30 10° NNW 18:42:53 12° N 18:44:15 10° NNE
YAOGAN 1 2.8 18:43:54 10° SE 18:47:55 43° ENE 18:51:58 10° N
Meteor 2-1 Rocket 4.4 18:44:45 10° N 18:50:39 87° W 18:56:35 10° S
Cosmos 1975 Rocket 3.3 18:48:07 10° SSE 18:52:17 46° E 18:56:26 10° NNE
FALCON 9 R/B 4.1 18:46:18 10° W 18:52:19 49° S 19:14:20 10° ESE
Cosmos 1980 3.9 18:46:56 10° N 18:52:26 51° ENE 18:57:52 10° SE
Cosmos 1782 4.2 18:55:24 10° NE 18:57:27 14° ENE 18:59:28 10° ESE
Cosmos 2237 Rocket 2.4 18:51:57 10° N 18:57:29 52° ENE 19:03:00 10° SE
Cosmos 1455 Rocket 3.2 18:54:53 10° N 18:59:03 50° E 19:03:14 10° SSE
COSMOS 2428 3.7 18:55:28 10° NNW 19:01:00 52° WSW 19:06:30 10° S
Cosmos 1862 4.3 18:58:16 10° SE 19:01:00 21° E 19:03:43 10° NE
Aureole 3 Rocket 2.0 18:58:15 10° N 19:01:24 76° E 19:04:24 10° S
Cosmos 1602 2.7 19:01:38 10° S 19:04:22 90° W 19:07:08 10° N
NOSS 0 Rocket 4.5 19:06:01 10° NNW 19:12:09 63° WSW 19:18:15 10° S
Cosmos 2227 Rocket 2.9 19:07:00 10° SSW 19:12:31 58° WNW 19:18:05 10° N
Meteor 1-27 4.2 19:10:39 10° N 19:16:27 74° E 19:22:17 10° SSE
SJ-6B 3.6 19:18:44 23° ENE 19:18:44 23° ENE 19:21:18 10° NNE
SL-8 R/B 3.8 19:14:05 10° SW 19:18:45 60° SE 19:21:58 20° ENE
NOSS 3-4 (A) 4.2 19:14:23 10° NNW 19:21:25 49° ENE 19:29:27 10° SE
NOSS 3-4 (C) 4.2 19:14:41 10° NNW 19:21:43 49° ENE 19:29:44 10° SE
SeaSat 1 2.4 19:19:38 10° SSE 19:24:31 88° WSW 19:29:26 10° NNW
SL-16 R/B 3.3 19:20:34 10° NNE 19:24:55 22° ENE 19:25:43 22° ENE
Cosmos 1816 Rocket 4.4 19:21:51 10° S 19:27:57 80° E 19:34:10 10° N
SEDSat Delta rocket 4.2 19:33:04 10° W 19:36:49 32° SSW 19:39:22 16° SSE
Cosmos 2058 2.6 19:34:05 10° S 19:37:57 86° ESE 19:41:51 10° N
BREEZE-M DEB (TANK) 4.3 19:33:21 10° SSW 19:37:57 51° SE 19:52:05 12° NE
Cosmos 1538 Rocket 4.3 19:35:33 10° S 19:40:36 45° ESE 19:43:41 22° NE
Delta 2 Rocket 2.7 19:39:09 10° WNW 19:42:06 55° NNE 19:42:06 55° NNE
CARTOSAT-1 4.1 19:41:44 10° S 19:45:50 57° W 19:49:58 10° NNW
Cosmos 1844 Rocket 4.2 19:41:35 10° SSE 19:43:30 18° SE 19:43:30 18° SE
DNEPR-1 R/B 4.5 19:41:03 10° NNW 19:46:18 50° ENE 19:49:22 28° ESE
Cosmos 2034 Rocket 4.0 19:40:29 10° N 19:46:32 54° E 19:52:37 10° SSE
Cosmos 1072 Rocket 4.5 19:40:56 10° N 19:47:08 84° W 19:53:12 10° S
Resurs 01 Rocket 1.7 19:45:26 10° S 19:49:48 76° WSW 19:54:12 10° NNW
Celestis-02/Orion 38 4.4 19:45:10 10° SSE 19:50:15 82° ENE 19:55:28 10° NNW
Haruka 2.6 19:43:58 10° W 19:50:53 79° N 19:51:46 51° ENE
Atlas Centaur 2 2.9 19:44:13 10° W 19:52:10 70° SSW 19:55:45 31° ESE
GOES 2 Rocket 2.9 19:52:50 10° W 19:57:00 68° S 19:57:30 61° SE
Helios 1A Rocket 3.5 19:54:30 11° N 19:57:30 42° WNW 20:00:35 10° SSW
Cosmos 1536 Rocket 3.5 19:55:03 10° S 19:58:54 62° SE 19:58:54 62° SE
Centaur AC-112 4.3 19:29:47 10° WSW 20:03:45 70° S 20:06:38 40° ESE
IRAS Rocket 4.4 20:08:44 10° S 20:14:18 73° WSW 20:19:56 10° NNW
Cosmos 2219 4.1 20:09:55 10° SW 20:15:25 48° WNW 20:20:58 10° N
Cosmos 2263 Rocket 4.3 20:16:43 10° WSW 20:21:17 25° WNW 20:25:53 10° N
USA 234 3.5 20:17:12 23° SSE 20:21:23 65° SW 20:27:53 10° NW
CZ-3C R/B 3.9 20:29:23 10° WSW 20:51:53 29° S 20:53:11 28° S
SL-16 R/B 3.6 21:03:50 10° NW 21:07:40 34° WNW 21:07:40 34° WNW
H-2A R/B 4.2 21:08:42 10° W 21:26:58 53° WSW 21:26:58 53° WSW
Atlas Centaur 2 4.5 21:34:13 10° W 21:37:42 23° WSW 21:37:42 23° WSW
